[[{"header":{"parameterUnit":"m.s-1","parameterCategory":1,"la1":30.2991,"la2":30.254,"lo1":-89.0895,"lo2":-89.0444,"dy":0.0017,"dx":0.0017,"nx":28,"ny":28,"refTime":"2026-01-02T03:00:00:Z","depth":0,"parameterNumber":2,"parameterNumberName":"U-component_of_WINDS"},"data":[0,0,0,0,0,0,0,0,0,0,0,0,0,0,0,0,0,0,0,0,0,0,0,0,0,0,0,0,0,0,0,0,0,0,0,0,0,0,0,0,0,0,0,0,0,0,0,0,0,0,0,0,0,0,0,0,0,0,2.7268,2.7268,0,2.7291,2.7292,2.7292,2.724,2.7238,2.7237,2.7235,2.7263,2.7265,2.7267,0,0,0,0,0,0,0,0,0,0,0,0,0,2.7181,2.7183,2.7268,2.7268,2.7268,2.7291,2.7292,2.7292,2.724,2.7238,2.7236,2.7234,2.7262,2.7265,2.7267,0,0,0,0,0,0,0,0,0,0,0,0,0,2.7213,2.7184,2.7268,2.7245,2.7243,2.7291,2.7292,2.7292,2.7241,2.7238,2.7236,2.7233,2.7261,2.7264,2.7268,2.734,0,0,2.7278,2.728,0,0,0,0,0,0,0,0,2.7212,2.7217,2.7248,2.7247,2.7245,2.726,2.7271,2.7308,2.7241,2.7242,2.7235,2.7232,2.7264,2.7267,2.7277,2.7341,2.7342,2.7279,2.7281,2.7282,2.7283,0,0,0,0,0,0,0,2.7209,2.7215,2.7277,2.7249,2.7247,2.7235,2.7237,2.7278,2.7267,2.7242,2.7238,2.7241,2.7263,2.7274,2.7278,2.7343,2.7279,2.7282,2.7284,2.7285,2.7467,2.7469,0,0,0,0,0,0,2.721,2.7214,2.7277,2.7278,2.7222,2.7239,2.7241,2.7258,2.7266,2.7265,2.7243,2.7239,2.7269,2.7274,2.7278,2.7363,2.7282,2.7286,2.7287,2.7464,2.7467,2.747,0,0,0,0,0,0,2.7208,2.7216,2.7276,2.7245,2.7252,2.7243,2.7263,2.726,2.7271,2.7268,2.7266,2.7257,2.7268,2.7273,2.7325,2.7363,2.7287,2.729,2.7461,2.7465,2.7469,2.7533,0,0,0,0,0,0,2.7206,2.7215,2.7242,2.7246,2.7253,2.7321,2.7265,2.7262,2.7276,2.7271,2.728,2.7279,2.7266,2.732,2.7328,2.7367,2.7293,2.7457,2.7463,2.7468,2.7528,2.7539,2.7549,0,0,0,0,0,2.7203,2.726,2.7243,2.7251,2.7286,2.7323,2.7327,2.7311,2.728,2.7307,2.7305,2.7278,2.7358,2.7325,2.7334,2.7375,2.7455,2.7461,2.7467,2.7523,2.7537,2.7548,0,0,0,0,0,0,2.7262,2.726,2.7242,2.7301,2.7313,2.7314,2.7348,2.7326,2.7347,2.7341,2.732,2.7323,2.7378,2.7381,2.7345,2.7445,2.7401,2.741,2.744,2.7454,2.7464,2.7462,2.7296,0,0,0,0,0,2.7282,2.7311,2.7308,2.7361,2.7367,2.7357,2.7372,2.7358,2.7369,2.7374,2.7376,2.7389,2.7416,2.7435,2.7461,2.7528,2.7529,2.756,2.7571,2.7579,2.7587,2.7623,2.7636,2.7491,2.7491,2.7491,0,0,2.7323,2.7326,2.7345,2.7373,2.738,2.7411,2.7361,2.7396,2.742,2.738,2.7428,2.743,2.7443,2.7502,2.7529,2.7507,2.7627,2.7587,2.7594,2.7597,2.7631,2.7644,2.7657,2.7495,2.7494,2.7494,0,0,2.7415,2.7419,2.7464,2.7472,2.7483,2.7475,2.7486,2.7491,2.749,2.7538,2.7508,2.7537,2.7585,2.7595,2.7607,2.7703,2.7679,2.7712,2.7767,2.7802,2.7814,2.7824,2.7858,2.7871,2.7719,2.7719,2.7719,0,2.7465,2.751,2.749,2.7527,2.754,2.7504,2.755,2.7559,2.7578,2.7589,2.7564,2.7623,2.763,2.7691,2.7714,2.7725,2.7737,2.771,2.7814,2.7824,2.7833,2.7865,2.7878,2.7723,2.7723,2.7722,2.7722,0,2.7572,2.7604,2.7639,2.7657,2.7674,2.7715,2.7702,2.7722,2.7707,2.7703,2.7752,2.7758,2.7784,2.7798,2.7784,2.7858,2.7844,2.7817,2.7773,2.7851,2.7881,2.7893,2.7729,2.7727,2.7726,2.7725,0,0,2.7701,2.7707,2.772,2.7728,2.7738,2.7762,2.7803,2.7827,2.7845,2.7859,2.7893,2.7934,2.7909,2.7923,2.7909,2.7941,2.8016,2.791,2.791,2.7929,2.8099,2.8119,2.8134,2.8001,2.8003,2.8005,2.8098,0,2.7792,2.7859,2.7842,2.791,2.7939,2.7906,2.7941,2.7951,2.7948,2.7974,2.7971,2.8001,2.7965,2.7973,2.8002,2.8001,2.805,2.7994,2.8033,2.8034,2.803,2.8149,2.8171,2.8258,2.8109,2.8111,2.8113,0,2.7906,2.7924,2.7994,2.7999,2.8011,2.8042,2.8063,2.8088,2.8099,2.8095,2.811,2.809,2.8131,2.8087,2.8143,2.8105,2.812,2.8122,2.8125,2.8128,2.8078,2.8156,2.8285,2.8299,2.8131,2.813,2.8128,0,2.7993,2.8035,2.8082,2.809,2.8097,2.812,2.8124,2.8132,2.8148,2.8167,2.8177,2.8201,2.8214,2.8234,2.8222,2.819,2.8281,2.8235,2.8279,2.8279,2.8299,2.8298,2.8433,2.8309,2.8309,2.8309,2.8309,0,2.8096,2.8141,2.8122,2.8151,2.82,2.8181,2.823,2.823,2.8238,2.8268,2.8241,2.8269,2.8252,2.8279,2.827,2.8318,2.8325,2.8323,2.832,2.8325,2.8326,2.8335,2.8329,2.8312,2.8311,2.8311,2.831,0,2.8202,2.8191,2.824,2.8242,2.8244,2.828,2.8282,2.831,2.8305,2.8342,2.835,2.8343,2.8374,2.8364,2.8397,2.8391,2.8453,2.8442,2.8448,2.8446,2.849,2.8486,2.8636,2.8655,2.8519,2.852,2.8521,0,2.8268,2.8301,2.8306,2.8324,2.8329,2.8358,2.8373,2.8356,2.8373,2.8389,2.8415,2.8443,2.8465,2.8516,2.8514,2.854,2.853,2.8581,2.8534,2.8538,2.8531,2.8529,2.8532,2.859,2.8592,2.8593,2.8594,0,2.8387,2.838,2.8402,2.8424,2.8443,2.846,2.8474,2.849,2.8473,2.8495,2.8525,2.8542,2.8576,2.8604,2.8627,2.8633,2.8611,2.8609,2.862,2.8626,2.8628,2.8628,2.8474,2.8605,2.8604,2.8603,2.8603,2.8602,2.8474,2.8502,2.851,2.8537,2.8546,2.8559,2.8585,2.8583,2.8608,2.8633,2.8622,2.8658,2.8669,2.8697,2.8706,2.8734,2.8715,2.8732,2.8736,2.874,2.8746,2.8624,2.8738,2.8738,2.8738,2.8738,2.8737,0,2.8592,2.8595,2.862,2.864,2.8661,2.8638,2.8652,2.8672,2.8703,2.8715,2.8736,2.8772,2.8799,2.88,2.8826,2.8849,2.884,2.8856,2.8854,2.8856,2.8762,2.8749,2.8863,2.8863,2.8863,2.8863,2.8863,2.8863,2.8655,2.8701,2.8695,2.8746,2.8749,2.8783,2.8793,2.8806,2.8815,2.8855,2.8878,2.8878,2.8885,2.8911,2.8936,2.8936,2.8947,2.8967,2.8963,2.8875,2.8863,2.8851,2.8839,2.897,2.897,2.9055,2.9056,2.9057]},{"header":{"parameterUnit":"m.s-1","parameterCategory":1,"la1":30.2991,"la2":30.254,"lo1":-89.0895,"lo2":-89.0444,"dy":0.0017,"dx":0.0017,"nx":28,"ny":28,"refTime":"2026-01-02T03:00:00:Z","depth":0,"parameterNumber":3,"parameterNumberName":"V-component_of_WINDS"},"data":[0,0,0,0,0,0,0,0,0,0,0,0,0,0,0,0,0,0,0,0,0,0,0,0,0,0,0,0,0,0,0,0,0,0,0,0,0,0,0,0,0,0,0,0,0,0,0,0,0,0,0,0,0,0,0,0,0,0,5.4921,5.4922,0,5.5084,5.5086,5.5087,5.5098,5.5096,5.5094,5.5092,5.5262,5.5268,5.5274,0,0,0,0,0,0,0,0,0,0,0,0,0,5.4621,5.4627,5.492,5.4922,5.4925,5.5083,5.5086,5.5088,5.5098,5.5096,5.5094,5.5091,5.526,5.5267,5.5275,0,0,0,0,0,0,0,0,0,0,0,0,0,5.4764,5.4628,5.492,5.4949,5.4953,5.5083,5.5086,5.5088,5.5099,5.5096,5.5093,5.509,5.5257,5.5266,5.5276,5.5389,0,0,5.5304,5.5308,0,0,0,0,0,0,0,0,5.4756,5.4775,5.4942,5.4947,5.4952,5.5067,5.5042,5.5189,5.5099,5.5043,5.5092,5.5089,5.52,5.5214,5.525,5.5397,5.5404,5.5305,5.5311,5.5315,5.5317,0,0,0,0,0,0,0,5.4746,5.4769,5.4985,5.4945,5.4951,5.4955,5.4972,5.507,5.5135,5.5048,5.5049,5.5068,5.5202,5.5241,5.5254,5.5407,5.5305,5.5313,5.5319,5.5323,5.5657,5.566,0,0,0,0,0,0,5.4731,5.476,5.498,5.499,5.4845,5.4962,5.4982,5.5033,5.5134,5.5147,5.507,5.5068,5.5227,5.5243,5.526,5.5401,5.5315,5.5324,5.5329,5.5654,5.5658,5.5661,0,0,0,0,0,0,5.4724,5.475,5.4973,5.4876,5.4904,5.497,5.5028,5.5038,5.5077,5.5151,5.5163,5.5099,5.5225,5.5247,5.5357,5.5407,5.5328,5.5336,5.565,5.5655,5.566,5.5683,0,0,0,0,0,0,5.4715,5.4748,5.479,5.4876,5.4909,5.5067,5.5031,5.5043,5.5093,5.5092,5.5181,5.5193,5.5225,5.5343,5.5367,5.5419,5.5344,5.5646,5.5652,5.5658,5.5678,5.5688,5.5697,0,0,0,0,0,5.4705,5.4791,5.4793,5.4819,5.4964,5.5069,5.5088,5.5123,5.5097,5.5142,5.5189,5.519,5.5398,5.5354,5.5381,5.5437,5.5643,5.565,5.5657,5.5674,5.5686,5.5696,0,0,0,0,0,0,5.4709,5.4802,5.4806,5.4922,5.4987,5.5071,5.5128,5.5134,5.5209,5.5205,5.5245,5.5265,5.5374,5.5416,5.5366,5.5553,5.5518,5.5531,5.5521,5.5533,5.5542,5.5531,5.5351,0,0,0,0,0,5.4724,5.4801,5.4878,5.4973,5.5006,5.5061,5.5108,5.5129,5.5199,5.5227,5.5283,5.5352,5.5433,5.5485,5.5564,5.5684,5.5705,5.5735,5.5745,5.5752,5.5763,5.5832,5.5847,5.5685,5.5685,5.5685,0,0,5.4755,5.4815,5.4861,5.4976,5.5029,5.5109,5.5084,5.517,5.523,5.524,5.5348,5.5391,5.5471,5.5587,5.5641,5.5626,5.5812,5.5761,5.5767,5.5774,5.5841,5.5856,5.587,5.569,5.569,5.5689,0,0,5.4852,5.4904,5.499,5.5044,5.5126,5.5162,5.5183,5.5266,5.5295,5.5403,5.5413,5.5486,5.5624,5.5681,5.5728,5.5848,5.5853,5.5873,5.5922,5.5989,5.6001,5.6013,5.6058,5.6073,5.5884,5.5884,5.5884,0,5.488,5.5,5.5034,5.5119,5.517,5.5183,5.5271,5.5322,5.5425,5.5461,5.5442,5.5617,5.5671,5.5802,5.5831,5.5868,5.5895,5.5863,5.5997,5.6009,5.602,5.6063,5.608,5.5886,5.5885,5.5885,5.5885,0,5.5032,5.5115,5.5175,5.5274,5.5331,5.5417,5.5466,5.552,5.5536,5.5575,5.5686,5.5752,5.5845,5.5877,5.5894,5.6011,5.5999,5.5988,5.5954,5.6037,5.6078,5.6095,5.5889,5.5888,5.5887,5.5887,0,0,5.5136,5.5253,5.5275,5.5321,5.5412,5.5478,5.5565,5.5656,5.5702,5.5773,5.5849,5.5966,5.5957,5.601,5.6033,5.6092,5.6185,5.6074,5.6076,5.6094,5.6321,5.633,5.6349,5.6188,5.6192,5.6194,5.6315,0,5.5245,5.54,5.5434,5.5569,5.5647,5.5661,5.5738,5.5803,5.5842,5.5915,5.5958,5.6042,5.6022,5.6055,5.6113,5.6161,5.6232,5.6153,5.6261,5.6264,5.6242,5.637,5.6379,5.649,5.6331,5.6334,5.6336,0,5.5392,5.5467,5.5609,5.5692,5.5726,5.5794,5.5881,5.595,5.6024,5.6049,5.6109,5.6126,5.622,5.618,5.6311,5.6257,5.6303,5.6334,5.6339,5.6351,5.6306,5.6387,5.6526,5.6543,5.6361,5.6359,5.6357,0,5.5456,5.5592,5.5695,5.5734,5.5832,5.588,5.5924,5.5995,5.6048,5.6124,5.6159,5.6245,5.6292,5.6359,5.64,5.6367,5.6528,5.6491,5.6553,5.6552,5.6587,5.6584,5.6736,5.6614,5.6614,5.6613,5.6613,0,5.5575,5.5662,5.5726,5.5789,5.5888,5.5927,5.6024,5.6067,5.6131,5.6205,5.6222,5.6291,5.6339,5.6416,5.6448,5.6553,5.6573,5.6597,5.6605,5.6597,5.6594,5.6628,5.6622,5.6618,5.6617,5.6616,5.6615,0,5.5663,5.5709,5.5823,5.5907,5.593,5.6,5.6072,5.6135,5.6175,5.6268,5.6292,5.6354,5.6445,5.6492,5.6605,5.6627,5.6745,5.6747,5.672,5.6723,5.6782,5.6777,5.6963,5.6991,5.6848,5.6849,5.6851,0,5.5737,5.5804,5.5895,5.5946,5.599,5.607,5.6124,5.6165,5.6221,5.6312,5.6365,5.6457,5.6532,5.6677,5.6733,5.682,5.6826,5.6886,5.6839,5.6829,5.6829,5.6825,5.6833,5.6894,5.6895,5.6896,5.6897,0,5.5862,5.5882,5.5959,5.6044,5.6108,5.6178,5.6246,5.6287,5.6339,5.6401,5.6494,5.6553,5.6669,5.676,5.6852,5.6898,5.6908,5.6911,5.693,5.6923,5.6905,5.6918,5.6744,5.6907,5.6906,5.6905,5.6905,5.6904,5.5947,5.6008,5.6082,5.6168,5.6224,5.6288,5.6352,5.64,5.6477,5.6575,5.6594,5.6693,5.6768,5.6892,5.6941,5.702,5.7008,5.7035,5.7042,5.7049,5.7052,5.6891,5.7037,5.7036,5.7036,5.7036,5.7036,0,5.6075,5.6123,5.6202,5.6297,5.6365,5.6367,5.6444,5.6501,5.6587,5.6656,5.673,5.6838,5.6927,5.699,5.7081,5.7133,5.7139,5.7155,5.7153,5.7164,5.7057,5.7032,5.7148,5.7148,5.7148,5.7148,5.7148,5.7148,5.615,5.6254,5.6283,5.6416,5.6464,5.6561,5.6605,5.6665,5.672,5.6839,5.6913,5.6954,5.7021,5.7117,5.72,5.7216,5.725,5.7266,5.7283,5.7183,5.7171,5.716,5.7137,5.7273,5.7273,5.7384,5.7385,5.7385]}]]